Location: Beccas
(43.4309°N, 0.1528°E)
Time: 13:50:40
(UTC+00:00)

Transit 2A Rocket - Pass Details

Date: 28 May 2022
Orbit: 593 x 908 km, 66.7° (Epoch: 30 June)

Event Time Altitude Azimuth Distance (km) Brightness Sun altitude
Rises 20:44:13 0° 335° (NNW) 2,937 9.5 -11.4°
Reaches altitude 10° 20:46:43 10° 345° (NNW) 1,990 8.2 -11.7°
Maximum altitude 20:50:46 33° 50° (NE) 1,010 5.6 -12.3°
Enters shadow 20:53:41 16° 108° (ESE) 1,586 6.1 -12.6°
